Time,TemperatureF,DewpointF,PressureIn,WindDirection,WindDirectionDegrees,WindSpeedMPH,WindSpeedGustMPH,Humidity,HourlyPrecipIn,Conditions,Clouds,dailyrainin,SoftwareType,DateUTC
2013-06-05 00:02:00,58.0,42.0,30.06,WSW,250,5.0,20.0,56,0.00,,,0.00,,2013-06-05 04:02:00,
2013-06-05 00:13:00,58.0,42.0,30.06,WSW,250,5.0,20.0,56,0.00,,,0.00,,2013-06-05 04:13:00,
2013-06-05 00:23:00,58.0,42.0,30.06,WSW,258,5.0,12.0,56,0.00,,,0.00,,2013-06-05 04:23:00,
2013-06-05 00:33:00,58.0,42.0,30.06,West,259,5.0,15.0,56,0.00,,,0.00,,2013-06-05 04:33:00,
2013-06-05 00:42:00,58.0,42.0,30.06,West,259,5.0,15.0,56,0.00,,,0.00,,2013-06-05 04:42:00,
2013-06-05 00:53:00,57.0,42.0,30.06,WSW,252,5.0,14.0,57,0.00,,,0.00,,2013-06-05 04:53:00,
2013-06-05 01:02:00,57.0,42.0,30.06,WSW,253,6.0,15.0,58,0.00,,,0.00,,2013-06-05 05:02:00,
2013-06-05 01:12:00,57.0,42.0,30.06,WSW,253,6.0,15.0,58,0.00,,,0.00,,2013-06-05 05:12:00,
2013-06-05 01:22:00,57.0,42.0,30.06,WSW,248,5.0,16.0,58,0.00,,,0.00,,2013-06-05 05:22:00,
2013-06-05 01:32:00,57.0,43.0,30.06,West,269,2.0,18.0,59,0.00,,,0.00,,2013-06-05 05:32:00,
2013-06-05 01:42:00,57.0,43.0,30.06,West,269,2.0,18.0,59,0.00,,,0.00,,2013-06-05 05:42:00,
2013-06-05 01:52:00,57.0,42.0,30.07,West,259,3.0,16.0,58,0.00,,,0.00,,2013-06-05 05:52:00,
2013-06-05 02:02:00,57.0,42.0,30.07,WSW,256,1.0,19.0,58,0.00,,,0.00,,2013-06-05 06:02:00,
2013-06-05 02:12:00,57.0,42.0,30.07,WSW,256,1.0,19.0,58,0.00,,,0.00,,2013-06-05 06:12:00,
2013-06-05 02:22:00,57.0,42.0,30.06,West,268,4.0,13.0,57,0.00,,,0.00,,2013-06-05 06:22:00,
2013-06-05 02:32:00,57.0,42.0,30.06,WNW,300,0.0,13.0,58,0.00,,,0.00,,2013-06-05 06:32:00,
2013-06-05 02:42:00,57.0,42.0,30.06,WNW,300,0.0,13.0,58,0.00,,,0.00,,2013-06-05 06:42:00,
2013-06-05 02:52:00,57.0,42.0,30.07,West,262,1.0,13.0,58,0.00,,,0.00,,2013-06-05 06:52:00,
2013-06-05 03:02:00,57.0,41.0,30.06,West,269,1.0,10.0,56,0.00,,,0.00,,2013-06-05 07:02:00,
2013-06-05 03:12:00,57.0,41.0,30.06,West,269,1.0,10.0,56,0.00,,,0.00,,2013-06-05 07:12:00,
2013-06-05 03:22:00,58.0,41.0,30.06,ENE,58,1.0,12.0,54,0.00,,,0.00,,2013-06-05 07:22:00,
2013-06-05 03:32:00,57.0,42.0,30.07,West,260,1.0,7.0,58,0.00,,,0.00,,2013-06-05 07:32:00,
2013-06-05 03:42:00,57.0,42.0,30.07,West,260,1.0,7.0,58,0.00,,,0.00,,2013-06-05 07:42:00,
2013-06-05 03:52:00,57.0,42.0,30.07,North,350,1.0,6.0,58,0.00,,,0.00,,2013-06-05 07:52:00,
2013-06-05 04:02:00,56.0,43.0,30.08,North,350,0.0,2.0,61,0.00,,,0.00,,2013-06-05 08:02:00,
2013-06-05 04:12:00,56.0,43.0,30.08,North,350,0.0,2.0,61,0.00,,,0.00,,2013-06-05 08:12:00,
2013-06-05 04:22:00,55.0,43.0,30.08,North,350,0.0,2.0,64,0.00,,,0.00,,2013-06-05 08:22:00,
2013-06-05 04:32:00,54.0,43.0,30.09,North,350,0.0,2.0,67,0.00,,,0.00,,2013-06-05 08:32:00,
2013-06-05 04:42:00,54.0,43.0,30.09,North,350,0.0,2.0,67,0.00,,,0.00,,2013-06-05 08:42:00,
2013-06-05 04:52:00,53.0,44.0,30.09,North,349,0.0,2.0,71,0.00,,,0.00,,2013-06-05 08:52:00,
2013-06-05 05:02:00,52.0,43.0,30.09,North,350,0.0,3.0,70,0.00,,,0.00,,2013-06-05 09:02:00,
2013-06-05 05:12:00,52.0,43.0,30.09,North,350,0.0,3.0,70,0.00,,,0.00,,2013-06-05 09:12:00,
2013-06-05 05:22:00,52.0,43.0,30.09,North,349,0.0,0.0,72,0.00,,,0.00,,2013-06-05 09:22:00,
2013-06-05 05:33:00,51.0,43.0,30.10,North,350,0.0,0.0,74,0.00,,,0.00,,2013-06-05 09:33:00,
2013-06-05 05:43:00,51.0,43.0,30.10,North,350,0.0,0.0,74,0.00,,,0.00,,2013-06-05 09:43:00,
2013-06-05 05:53:00,49.0,42.0,30.10,North,349,0.0,0.0,77,0.00,,,0.00,,2013-06-05 09:53:00,
2013-06-05 06:03:00,49.0,43.0,30.10,North,350,0.0,0.0,79,0.00,,,0.00,,2013-06-05 10:03:00,
2013-06-05 06:12:00,49.0,43.0,30.10,North,350,0.0,0.0,79,0.00,,,0.00,,2013-06-05 10:12:00,
2013-06-05 06:22:00,48.0,42.0,30.11,North,350,0.0,0.0,81,0.00,,,0.00,,2013-06-05 10:22:00,
2013-06-05 06:33:00,48.0,43.0,30.11,North,350,0.0,0.0,83,0.00,,,0.00,,2013-06-05 10:33:00,
2013-06-05 06:42:00,48.0,43.0,30.11,North,350,0.0,0.0,83,0.00,,,0.00,,2013-06-05 10:42:00,
2013-06-05 06:53:00,49.0,45.0,30.11,North,350,0.0,0.0,85,0.00,,,0.00,,2013-06-05 10:53:00,
2013-06-05 07:02:00,49.0,45.0,30.12,North,350,0.0,0.0,86,0.00,,,0.00,,2013-06-05 11:02:00,
2013-06-05 07:12:00,49.0,45.0,30.12,North,350,0.0,0.0,86,0.00,,,0.00,,2013-06-05 11:12:00,
2013-06-05 07:22:00,50.0,46.0,30.12,North,350,0.0,0.0,87,0.00,,,0.00,,2013-06-05 11:22:00,
2013-06-05 07:32:00,51.0,47.0,30.13,North,350,0.0,0.0,87,0.00,,,0.00,,2013-06-05 11:32:00,
2013-06-05 07:42:00,51.0,47.0,30.13,North,350,0.0,0.0,87,0.00,,,0.00,,2013-06-05 11:42:00,
2013-06-05 07:52:00,51.0,46.0,30.13,North,349,0.0,0.0,82,0.00,,,0.00,,2013-06-05 11:52:00,
2013-06-05 08:02:00,53.0,46.0,30.14,North,349,0.0,0.0,76,0.00,,,0.00,,2013-06-05 12:02:00,
2013-06-05 08:12:00,53.0,46.0,30.14,North,349,0.0,0.0,76,0.00,,,0.00,,2013-06-05 12:12:00,
2013-06-05 08:22:00,55.0,46.0,30.14,North,349,0.0,1.0,72,0.00,,,0.00,,2013-06-05 12:22:00,
2013-06-05 08:32:00,57.0,48.0,30.14,North,350,0.0,0.0,71,0.00,,,0.00,,2013-06-05 12:32:00,
2013-06-05 08:44:00,57.0,48.0,30.14,North,350,0.0,0.0,71,0.00,,,0.00,,2013-06-05 12:44:00,
2013-06-05 08:52:00,58.0,48.0,30.14,North,349,0.0,0.0,69,0.00,,,0.00,,2013-06-05 12:52:00,
2013-06-05 09:02:00,58.0,46.0,30.14,North,349,0.0,1.0,65,0.00,,,0.00,,2013-06-05 13:02:00,
2013-06-05 09:12:00,58.0,46.0,30.14,North,349,0.0,1.0,65,0.00,,,0.00,,2013-06-05 13:12:00,
2013-06-05 09:22:00,58.0,47.0,30.14,North,350,0.0,1.0,66,0.00,,,0.00,,2013-06-05 13:22:00,
2013-06-05 09:32:00,59.0,47.0,30.14,North,350,0.0,0.0,65,0.00,,,0.00,,2013-06-05 13:32:00,
2013-06-05 09:42:00,60.0,48.0,30.14,North,349,0.0,1.0,65,0.00,,,0.00,,2013-06-05 13:42:00,
2013-06-05 09:52:00,60.0,48.0,30.14,North,349,0.0,1.0,65,0.00,,,0.00,,2013-06-05 13:52:00,
2013-06-05 10:02:00,60.0,48.0,30.14,North,350,0.0,2.0,65,0.00,,,0.00,,2013-06-05 14:02:00,
2013-06-05 10:12:00,61.0,48.0,30.14,North,350,0.0,2.0,63,0.00,,,0.00,,2013-06-05 14:12:00,
2013-06-05 10:22:00,61.0,48.0,30.14,North,350,0.0,2.0,63,0.00,,,0.00,,2013-06-05 14:22:00,
2013-06-05 10:32:00,62.0,48.0,30.14,WNW,287,0.0,2.0,60,0.00,,,0.00,,2013-06-05 14:32:00,
2013-06-05 10:42:00,63.0,49.0,30.14,WNW,288,0.0,1.0,60,0.00,,,0.00,,2013-06-05 14:42:00,
2013-06-05 10:52:00,63.0,49.0,30.14,WNW,288,0.0,1.0,60,0.00,,,0.00,,2013-06-05 14:52:00,
2013-06-05 11:02:00,63.0,49.0,30.13,WNW,288,0.0,1.0,61,0.00,,,0.00,,2013-06-05 15:02:00,
2013-06-05 11:12:00,63.0,49.0,30.13,WNW,288,0.0,1.0,61,0.00,,,0.00,,2013-06-05 15:12:00,
2013-06-05 11:22:00,64.0,49.0,30.13,WNW,288,0.0,3.0,59,0.00,,,0.00,,2013-06-05 15:22:00,
2013-06-05 11:33:00,64.0,49.0,30.12,WNW,287,0.0,1.0,59,0.00,,,0.00,,2013-06-05 15:33:00,
2013-06-05 11:42:00,65.0,49.0,30.12,WNW,288,0.0,2.0,56,0.00,,,0.00,,2013-06-05 15:42:00,
2013-06-05 11:53:00,65.0,49.0,30.12,WNW,288,0.0,2.0,56,0.00,,,0.00,,2013-06-05 15:53:00,
2013-06-05 12:03:00,66.0,51.0,30.11,WNW,288,0.0,3.0,59,0.00,,,0.00,,2013-06-05 16:03:00,
2013-06-05 12:12:00,66.0,51.0,30.11,WNW,288,0.0,3.0,59,0.00,,,0.00,,2013-06-05 16:12:00,
2013-06-05 12:23:00,67.0,50.0,30.11,WNW,292,0.0,4.0,54,0.00,,,0.00,,2013-06-05 16:23:00,
2013-06-05 12:32:00,68.0,50.0,30.11,WNW,292,0.0,2.0,53,0.00,,,0.00,,2013-06-05 16:32:00,
2013-06-05 12:42:00,67.0,50.0,30.11,WNW,296,0.0,3.0,54,0.00,,,0.00,,2013-06-05 16:42:00,
2013-06-05 12:54:00,67.0,50.0,30.11,WNW,296,0.0,3.0,54,0.00,,,0.00,,2013-06-05 16:54:00,
2013-06-05 13:02:00,66.0,51.0,30.11,WNW,297,0.0,0.0,59,0.00,,,0.00,,2013-06-05 17:02:00,
2013-06-05 13:13:00,66.0,51.0,30.11,WNW,297,0.0,0.0,59,0.00,,,0.00,,2013-06-05 17:13:00,
2013-06-05 13:22:00,68.0,53.0,30.11,WNW,296,0.0,1.0,58,0.00,,,0.00,,2013-06-05 17:22:00,
2013-06-05 13:33:00,68.0,53.0,30.09,WNW,297,0.0,1.0,59,0.00,,,0.00,,2013-06-05 17:33:00,
2013-06-05 13:43:00,69.0,53.0,30.09,WNW,296,0.0,3.0,57,0.00,,,0.00,,2013-06-05 17:43:00,
2013-06-05 13:52:00,69.0,53.0,30.09,WNW,296,0.0,3.0,57,0.00,,,0.00,,2013-06-05 17:52:00,
2013-06-05 14:02:00,71.0,55.0,30.08,WNW,297,0.0,2.0,57,0.00,,,0.00,,2013-06-05 18:02:00,
2013-06-05 14:12:00,72.0,52.0,30.08,WNW,296,0.0,2.0,49,0.00,,,0.00,,2013-06-05 18:12:00,
2013-06-05 14:22:00,72.0,52.0,30.08,WNW,296,0.0,2.0,49,0.00,,,0.00,,2013-06-05 18:22:00,
2013-06-05 14:32:00,72.0,52.0,30.07,WNW,296,0.0,2.0,50,0.00,,,0.00,,2013-06-05 18:32:00,
2013-06-05 14:42:00,73.0,52.0,30.06,WNW,297,0.0,1.0,47,0.00,,,0.00,,2013-06-05 18:42:00,
2013-06-05 14:52:00,73.0,52.0,30.06,WNW,297,0.0,1.0,47,0.00,,,0.00,,2013-06-05 18:52:00,
2013-06-05 15:02:00,73.0,53.0,30.06,WNW,297,0.0,3.0,49,0.00,,,0.00,,2013-06-05 19:02:00,
2013-06-05 15:12:00,73.0,53.0,30.06,WNW,297,0.0,3.0,49,0.00,,,0.00,,2013-06-05 19:12:00,
2013-06-05 15:23:00,72.0,53.0,30.06,WNW,296,0.0,1.0,52,0.00,,,0.00,,2013-06-05 19:23:00,
2013-06-05 15:32:00,72.0,53.0,30.05,WNW,297,0.0,2.0,51,0.00,,,0.00,,2013-06-05 19:32:00,
2013-06-05 15:42:00,74.0,54.0,30.05,WNW,297,0.0,3.0,50,0.00,,,0.00,,2013-06-05 19:42:00,
2013-06-05 15:53:00,74.0,54.0,30.05,WNW,297,0.0,3.0,50,0.00,,,0.00,,2013-06-05 19:53:00,
2013-06-05 16:02:00,73.0,55.0,30.04,WNW,297,0.0,1.0,53,0.00,,,0.00,,2013-06-05 20:02:00,
2013-06-05 16:12:00,73.0,54.0,30.04,WNW,297,0.0,1.0,51,0.00,,,0.00,,2013-06-05 20:12:00,
2013-06-05 16:23:00,73.0,54.0,30.04,WNW,297,0.0,1.0,51,0.00,,,0.00,,2013-06-05 20:23:00,
2013-06-05 16:32:00,72.0,53.0,30.03,WNW,297,0.0,0.0,52,0.00,,,0.00,,2013-06-05 20:32:00,
2013-06-05 16:42:00,71.0,53.0,30.03,WNW,296,0.0,0.0,53,0.00,,,0.00,,2013-06-05 20:42:00,
2013-06-05 16:52:00,71.0,53.0,30.03,WNW,296,0.0,0.0,53,0.00,,,0.00,,2013-06-05 20:52:00,
2013-06-05 17:02:00,71.0,54.0,30.03,WNW,296,0.0,0.0,54,0.00,,,0.00,,2013-06-05 21:02:00,
2013-06-05 17:12:00,72.0,54.0,30.03,WNW,296,0.0,0.0,54,0.00,,,0.00,,2013-06-05 21:12:00,
2013-06-05 17:22:00,72.0,54.0,30.03,WNW,296,0.0,0.0,54,0.00,,,0.00,,2013-06-05 21:22:00,
2013-06-05 17:33:00,72.0,57.0,30.03,WNW,296,0.0,0.0,59,0.00,,,0.00,,2013-06-05 21:33:00,
2013-06-05 17:43:00,70.0,55.0,30.04,WNW,296,0.0,2.0,58,0.00,,,0.00,,2013-06-05 21:43:00,
2013-06-05 17:53:00,70.0,55.0,30.04,WNW,296,0.0,2.0,58,0.00,,,0.00,,2013-06-05 21:53:00,
2013-06-05 18:02:00,69.0,52.0,30.04,WNW,297,0.0,1.0,54,0.00,,,0.00,,2013-06-05 22:02:00,
2013-06-05 18:12:00,69.0,52.0,30.04,WNW,297,0.0,1.0,54,0.00,,,0.00,,2013-06-05 22:12:00,
2013-06-05 18:22:00,69.0,51.0,30.05,WNW,297,0.0,0.0,53,0.00,,,0.00,,2013-06-05 22:22:00,
2013-06-05 18:33:00,70.0,52.0,30.04,WNW,297,0.0,1.0,53,0.00,,,0.00,,2013-06-05 22:33:00,
2013-06-05 18:42:00,70.0,51.0,30.04,WNW,297,0.0,0.0,51,0.00,,,0.00,,2013-06-05 22:42:00,
2013-06-05 18:53:00,70.0,51.0,30.04,WNW,297,0.0,0.0,51,0.00,,,0.00,,2013-06-05 22:53:00,
2013-06-05 19:02:00,69.0,52.0,30.03,WNW,296,0.0,0.0,55,0.00,,,0.00,,2013-06-05 23:02:00,
2013-06-05 19:12:00,68.0,54.0,30.03,WNW,297,0.0,0.0,60,0.00,,,0.00,,2013-06-05 23:12:00,
2013-06-05 19:22:00,68.0,54.0,30.03,WNW,297,0.0,0.0,60,0.00,,,0.00,,2013-06-05 23:22:00,
2013-06-05 19:32:00,66.0,53.0,30.04,WNW,296,0.0,0.0,64,0.00,,,0.00,,2013-06-05 23:32:00,
2013-06-05 19:42:00,66.0,53.0,30.04,WNW,296,0.0,0.0,64,0.00,,,0.00,,2013-06-05 23:42:00,
2013-06-05 19:53:00,65.0,53.0,30.04,WNW,296,0.0,0.0,65,0.00,,,0.00,,2013-06-05 23:53:00,
2013-06-05 20:02:00,64.0,54.0,30.04,WNW,297,0.0,0.0,71,0.00,,,0.00,,2013-06-06 00:02:00,
2013-06-05 20:12:00,62.0,52.0,30.04,WNW,296,0.0,0.0,71,0.00,,,0.00,,2013-06-06 00:12:00,
2013-06-05 20:22:00,62.0,52.0,30.04,WNW,296,0.0,0.0,71,0.00,,,0.00,,2013-06-06 00:22:00,
2013-06-05 20:32:00,62.0,53.0,30.04,WNW,297,0.0,0.0,72,0.00,,,0.00,,2013-06-06 00:32:00,
2013-06-05 20:42:00,61.0,53.0,30.04,WNW,297,0.0,0.0,76,0.00,,,0.00,,2013-06-06 00:42:00,
2013-06-05 20:52:00,61.0,53.0,30.04,WNW,297,0.0,0.0,76,0.00,,,0.00,,2013-06-06 00:52:00,
2013-06-05 21:02:00,59.0,52.0,30.04,WNW,297,0.0,0.0,77,0.00,,,0.00,,2013-06-06 01:02:00,
2013-06-05 21:12:00,59.0,52.0,30.05,WNW,297,0.0,0.0,77,0.00,,,0.00,,2013-06-06 01:12:00,
2013-06-05 21:22:00,59.0,52.0,30.05,WNW,297,0.0,0.0,77,0.00,,,0.00,,2013-06-06 01:22:00,
2013-06-05 21:32:00,59.0,52.0,30.05,WNW,297,0.0,0.0,78,0.00,,,0.00,,2013-06-06 01:32:00,
2013-06-05 21:42:00,58.0,51.0,30.06,WNW,297,0.0,0.0,78,0.00,,,0.00,,2013-06-06 01:42:00,
2013-06-05 21:53:00,58.0,51.0,30.06,WNW,297,0.0,0.0,78,0.00,,,0.00,,2013-06-06 01:53:00,
2013-06-05 22:02:00,57.0,50.0,30.06,WNW,297,0.0,0.0,78,0.00,,,0.00,,2013-06-06 02:02:00,
2013-06-05 22:12:00,57.0,50.0,30.06,WNW,297,0.0,0.0,78,0.00,,,0.00,,2013-06-06 02:12:00,
2013-06-05 22:22:00,57.0,50.0,30.06,WNW,296,0.0,0.0,78,0.00,,,0.00,,2013-06-06 02:22:00,
2013-06-05 22:32:00,57.0,51.0,30.06,WNW,296,0.0,0.0,79,0.00,,,0.00,,2013-06-06 02:32:00,
2013-06-05 22:42:00,57.0,51.0,30.06,WNW,296,0.0,0.0,79,0.00,,,0.00,,2013-06-06 02:42:00,
2013-06-05 22:52:00,57.0,51.0,30.06,WNW,296,0.0,0.0,79,0.00,,,0.00,,2013-06-06 02:52:00,
2013-06-05 23:02:00,56.0,50.0,30.06,WNW,297,0.0,0.0,79,0.00,,,0.00,,2013-06-06 03:02:00,
2013-06-05 23:12:00,56.0,50.0,30.06,WNW,297,0.0,0.0,79,0.00,,,0.00,,2013-06-06 03:12:00,
2013-06-05 23:22:00,56.0,50.0,30.06,WNW,297,0.0,0.0,79,0.00,,,0.00,,2013-06-06 03:22:00,
2013-06-05 23:33:00,56.0,50.0,30.06,WNW,297,0.0,0.0,81,0.00,,,0.00,,2013-06-06 03:33:00,
2013-06-05 23:43:00,56.0,50.0,30.06,WNW,297,0.0,0.0,81,0.00,,,0.00,,2013-06-06 03:43:00,
2013-06-05 23:53:00,56.0,50.0,30.06,WNW,297,0.0,0.0,80,0.00,,,0.00,,2013-06-06 03:53:00,